This is the latest recevied weather packets stored in our database for station/object DB0LS-15. If no packets are shown the sender has not sent any weather packets the latest 10 day(s).
| Time | Temp. | Humidity | Pressure | Rain* | Wind** | Luminosity | Snow |
|---|---|---|---|---|---|---|---|
| 1777809974 | 27.22° C | 30% | 994.9 hPa | 0 mm | - | - | - |
| 1777809370 | 26.67° C | 31% | 994.8 hPa | 0 mm | - | - | - |
| 1777808766 | 26.67° C | 31% | 995 hPa | 0 mm | - | - | - |
| 1777808163 | 26.67° C | 31% | 995.1 hPa | 0 mm | - | - | - |
| 1777807559 | 26.67° C | 31% | 995.2 hPa | 0 mm | - | - | - |
| 1777806955 | 26.11° C | 31% | 995.2 hPa | 0 mm | - | - | - |
| 1777806351 | 26.11° C | 33% | 995.3 hPa | 0 mm | - | - | - |
| 1777805748 | 25.56° C | 33% | 995.5 hPa | 0 mm | - | - | - |
| 1777805144 | 25.56° C | 33% | 995.5 hPa | 0 mm | - | - | - |
| 1777804540 | 26.11° C | 33% | 995.7 hPa | 0 mm | - | - | - |
| 1777803937 | 26.11° C | 32% | 995.8 hPa | 0 mm | - | - | - |
| 1777803333 | 25° C | 34% | 995.9 hPa | 0 mm | - | - | - |
| 1777802729 | 25.56° C | 35% | 996.1 hPa | 0 mm | - | - | - |
| 1777802125 | 25° C | 35% | 996.2 hPa | 0 mm | - | - | - |
| 1777801521 | 24.44° C | 35% | 996.2 hPa | 0 mm | - | - | - |
| 1777800917 | 25° C | 35% | 996.4 hPa | 0 mm | - | - | - |
| 1777800374 | 23.89° C | 36% | 996.4 hPa | 0 mm | - | - | - |
| 1777799770 | 23.89° C | 36% | 996.5 hPa | 0 mm | - | - | - |
| 1777799166 | 23.33° C | 36% | 996.4 hPa | 0 mm | - | - | - |
| 1777798557 | 22.78° C | 37% | 996.6 hPa | 0 mm | - | - | - |
| 1777797953 | 22.78° C | 37% | 996.6 hPa | 0 mm | - | - | - |
| 1777797349 | 22.22° C | 36% | 996.7 hPa | 0 mm | - | - | - |
| 1777796745 | 22.78° C | 36% | 996.8 hPa | 0 mm | - | - | - |
| 1777796141 | 22.78° C | 36% | 996.7 hPa | 0 mm | - | - | - |
| 1777795538 | 22.78° C | 36% | 996.8 hPa | 0 mm | - | - | - |
* Rain latest hour (hover to see other rain measurements)
** Current wind speed in m/s (hover to see current wind gust speed)